When you browse on this site, cookies collect data to enhance your experience and personalize the content and advertising you see.
Visit our Privacy Policy to learn more. By continuing to use the site, you agree to this use of cookies and data.
  • In France
  • List of Countries
  • For 7 days
  • Water Temperature
  • Satellite Maps
  • Weather Map
  • Weather Widgets
  • user-avatar
    Login

    Hourly Weather Sylhet

    Today, 24 April, Wednesday

    Time Temperature Precipitation Wind Pressure Humidity
    00:00 +29°C° 0 mm 1 mps 756 mmHg 48%
    01:00 +28°C° 0 mm 1 mps 756 mmHg 49%
    02:00 +28°C° 0 mm 2 mps 756 mmHg 51%
    03:00 +27°C° 0 mm 2 mps 756 mmHg 52%
    04:00 +27°C° 0 mm 2 mps 756 mmHg 54%
    05:00 +26°C° 0 mm 2 mps 756 mmHg 56%
    06:00 +27°C° 0 mm 2 mps 756 mmHg 59%
    07:00 +29°C° 0 mm 2 mps 756 mmHg 53%
    08:00 +32°C° 0 mm 2 mps 757 mmHg 46%
    09:00 +35°C° 0 mm 2 mps 757 mmHg 40%
    10:00 +37°C° 0 mm 2 mps 756 mmHg 36%
    11:00 +39°C° 0 mm 1 mps 756 mmHg 32%
    12:00 +41°C° 0 mm 1 mps 756 mmHg 29%
    13:00 +41°C° 0 mm 1 mps 756 mmHg 28%
    14:00 +41°C° 0 mm 2 mps 755 mmHg 27%
    15:00 +41°C° 0 mm 2 mps 754 mmHg 26%
    16:00 +39°C° 0 mm 2 mps 754 mmHg 30%
    17:00 +38°C° 0 mm 2 mps 754 mmHg 33%
    18:00 +37°C° 0 mm 2 mps 753 mmHg 37%
    19:00 +34°C° 0 mm 1 mps 754 mmHg 39%
    20:00 +33°C° 0 mm 1 mps 754 mmHg 41%
    21:00 +32°C° 0 mm 1 mps 755 mmHg 43%
    22:00 +31°C° 0 mm 1 mps 755 mmHg 44%
    23:00 +31°C° 0 mm 1 mps 755 mmHg 46%

    Tomorrow, 25 April, Thursday

    Time Temperature Precipitation Wind Pressure Humidity
    00:00 +30°C° 0 mm 1 mps 755 mmHg 48%
    01:00 +30°C° 0 mm 1 mps 755 mmHg 49%
    02:00 +29°C° 0 mm 1 mps 754 mmHg 50%
    03:00 +29°C° 0 mm 2 mps 754 mmHg 52%
    04:00 +29°C° 0 mm 1 mps 754 mmHg 54%
    05:00 +28°C° 0 mm 1 mps 754 mmHg 56%
    06:00 +28°C° 0 mm 1 mps 755 mmHg 58%
    07:00 +30°C° 0 mm 1 mps 755 mmHg 52%
    08:00 +33°C° 0 mm 1 mps 755 mmHg 45%
    09:00 +36°C° 0 mm 2 mps 756 mmHg 39%
    10:00 +37°C° 0 mm 1 mps 756 mmHg 35%
    11:00 +40°C° 0 mm 1 mps 755 mmHg 31%
    12:00 +42°C° 0 mm 1 mps 755 mmHg 28%
    13:00 +42°C° 0 mm 1 mps 754 mmHg 27%
    14:00 +42°C° 0 mm 2 mps 753 mmHg 26%
    15:00 +42°C° 0 mm 2 mps 752 mmHg 26%
    16:00 +40°C° 0 mm 2 mps 752 mmHg 30%
    17:00 +39°C° 0 mm 2 mps 752 mmHg 33%
    18:00 +38°C° 0 mm 2 mps 752 mmHg 37%
    19:00 +36°C° 0 mm 1 mps 753 mmHg 39%
    20:00 +34°C° 0 mm 1 mps 753 mmHg 40%
    21:00 +33°C° 0 mm 1 mps 754 mmHg 42%
    22:00 +33°C° 0 mm 1 mps 754 mmHg 43%
    23:00 +32°C° 0 mm 1 mps 754 mmHg 45%

    Day after tomorrow, 26 April, Friday

    Time Temperature Precipitation Wind Pressure Humidity
    00:00 +32°C° 0 mm 1 mps 754 mmHg 46%
    01:00 +31°C° 0 mm 1 mps 754 mmHg 48%
    02:00 +30°C° 0 mm 2 mps 753 mmHg 49%
    03:00 +30°C° 0 mm 2 mps 753 mmHg 51%
    04:00 +29°C° 0 mm 2 mps 753 mmHg 53%
    05:00 +29°C° 0 mm 1 mps 754 mmHg 55%
    06:00 +29°C° 0 mm 1 mps 754 mmHg 58%
    07:00 +31°C° 0 mm 1 mps 754 mmHg 52%
    08:00 +33°C° 0 mm 1 mps 755 mmHg 46%
    09:00 +36°C° 0 mm 1 mps 755 mmHg 40%
    10:00 +37°C° 0 mm 1 mps 755 mmHg 36%
    11:00 +40°C° 0 mm 1 mps 754 mmHg 33%
    12:00 +42°C° 0 mm 1 mps 754 mmHg 29%
    13:00 +42°C° 0 mm 2 mps 753 mmHg 28%
    14:00 +42°C° 0 mm 2 mps 752 mmHg 27%
    15:00 +43°C° 0 mm 3 mps 751 mmHg 26%
    16:00 +41°C° 0 mm 2 mps 751 mmHg 29%
    17:00 +40°C° 0 mm 2 mps 751 mmHg 32%
    18:00 +37°C° 0 mm 1 mps 751 mmHg 35%
    19:00 +36°C° 0 mm 1 mps 752 mmHg 36%
    20:00 +35°C° 0 mm 1 mps 753 mmHg 37%
    21:00 +35°C° 0 mm 2 mps 754 mmHg 38%
    22:00 +34°C° 0 mm 2 mps 753 mmHg 40%
    23:00 +32°C° 0 mm 2 mps 753 mmHg 42%

    27 April, Saturday

    Time Temperature Precipitation Wind Pressure Humidity
    00:00 +32°C° 0 mm 2 mps 753 mmHg 43%
    01:00 +31°C° 0 mm 2 mps 753 mmHg 47%
    02:00 +30°C° 0 mm 2 mps 753 mmHg 51%
    03:00 +30°C° 0 mm 2 mps 753 mmHg 54%
    04:00 +29°C° 0 mm 2 mps 753 mmHg 59%
    05:00 +29°C° 0 mm 1 mps 754 mmHg 63%
    06:00 +29°C° 0 mm 1 mps 754 mmHg 68%
    07:00 +31°C° 0 mm 1 mps 754 mmHg 62%
    08:00 +34°C° 0 mm 2 mps 755 mmHg 56%
    09:00 +36°C° 0 mm 2 mps 755 mmHg 50%
    10:00 +38°C° 0 mm 2 mps 755 mmHg 43%
    11:00 +39°C° 0 mm 2 mps 755 mmHg 37%
    12:00 +41°C° 0 mm 2 mps 754 mmHg 30%
    13:00 +42°C° 0 mm 3 mps 753 mmHg 28%
    14:00 +43°C° 0 mm 3 mps 752 mmHg 26%
    15:00 +44°C° 0 mm 3 mps 751 mmHg 24%
    16:00 +42°C° 0 mm 3 mps 751 mmHg 28%
    17:00 +40°C° 0 mm 2 mps 751 mmHg 31%
    18:00 +39°C° 0 mm 1 mps 751 mmHg 34%
    19:00 +38°C° 0 mm 2 mps 751 mmHg 38%
    20:00 +36°C° 0 mm 3 mps 752 mmHg 41%
    21:00 +35°C° 0 mm 3 mps 753 mmHg 45%
    22:00 +34°C° 0 mm 3 mps 753 mmHg 49%
    23:00 +32°C° 0 mm 2 mps 753 mmHg 54%

    28 April, Sunday

    Time Temperature Precipitation Wind Pressure Humidity
    00:00 +31°C° 0 mm 2 mps 753 mmHg 58%
    01:00 +31°C° 0 mm 2 mps 753 mmHg 59%
    02:00 +31°C° 0 mm 2 mps 753 mmHg 61%
    03:00 +31°C° 0 mm 2 mps 753 mmHg 62%
    04:00 +30°C° 0.2 mm 2 mps 753 mmHg 67%
    05:00 +30°C° 0.2 mm 2 mps 754 mmHg 73%
    06:00 +29°C° 0.2 mm 2 mps 754 mmHg 78%
    07:00 +30°C° 0.1 mm 2 mps 755 mmHg 74%
    08:00 +31°C° 0.1 mm 3 mps 755 mmHg 71%
    09:00 +33°C° 0.1 mm 3 mps 756 mmHg 67%
    10:00 +35°C° 0 mm 3 mps 755 mmHg 61%
    11:00 +36°C° 0 mm 2 mps 755 mmHg 55%
    12:00 +37°C° 0 mm 2 mps 754 mmHg 49%
    13:00 +38°C° 0 mm 2 mps 753 mmHg 45%
    14:00 +39°C° 0 mm 2 mps 752 mmHg 42%
    15:00 +40°C° 0 mm 2 mps 751 mmHg 39%
    16:00 +39°C° 0 mm 2 mps 751 mmHg 42%
    17:00 +38°C° 0 mm 2 mps 751 mmHg 46%
    18:00 +37°C° 0 mm 2 mps 751 mmHg 49%
    19:00 +35°C° 2.1 mm 3 mps 752 mmHg 59%
    20:00 +33°C° 2.1 mm 3 mps 752 mmHg 69%
    21:00 +30°C° 2.1 mm 3 mps 753 mmHg 78%
    22:00 +30°C° 1.1 mm 2 mps 753 mmHg 80%
    23:00 +30°C° 1.1 mm 2 mps 753 mmHg 82%

    29 April, Monday

    Time Temperature Precipitation Wind Pressure Humidity
    00:00 +29°C° 1.1 mm 1 mps 754 mmHg 84%
    01:00 +29°C° 0.2 mm 1 mps 753 mmHg 84%
    02:00 +29°C° 0.2 mm 2 mps 753 mmHg 84%
    03:00 +29°C° 0.2 mm 2 mps 753 mmHg 84%
    04:00 +29°C° 0.6 mm 2 mps 753 mmHg 85%
    05:00 +29°C° 0.6 mm 2 mps 754 mmHg 85%
    06:00 +29°C° 0.6 mm 2 mps 754 mmHg 86%
    07:00 +30°C° 0.6 mm 3 mps 755 mmHg 79%
    08:00 +31°C° 0.6 mm 3 mps 755 mmHg 73%
    09:00 +34°C° 0.6 mm 3 mps 755 mmHg 67%
    10:00 +34°C° 1.7 mm 3 mps 755 mmHg 65%
    11:00 +35°C° 1.7 mm 2 mps 754 mmHg 64%
    12:00 +35°C° 1.7 mm 2 mps 754 mmHg 62%
    13:00 +35°C° 2.6 mm 2 mps 753 mmHg 61%
    14:00 +35°C° 2.6 mm 1 mps 752 mmHg 60%
    15:00 +35°C° 2.6 mm 1 mps 752 mmHg 59%
    16:00 +35°C° 0.7 mm 1 mps 752 mmHg 62%
    17:00 +35°C° 0.7 mm 2 mps 751 mmHg 64%
    18:00 +34°C° 0.7 mm 2 mps 751 mmHg 67%
    19:00 +32°C° 2.9 mm 2 mps 752 mmHg 73%
    20:00 +31°C° 2.9 mm 2 mps 753 mmHg 78%
    21:00 +29°C° 2.9 mm 3 mps 753 mmHg 84%
    22:00 +29°C° 1.1 mm 2 mps 753 mmHg 85%
    23:00 +29°C° 1.1 mm 2 mps 753 mmHg 87%
    Show more